Weather History for Estherville, IA

Change the Weather History Date:

Wednesday, October 3, 2012

  Actual Average Record
Temperature  
Mean Temperature 57 °F 53 °F  
Max Temperature 78 °F 66 °F 91 °F (1997)
Min Temperature 36 °F 41 °F 22 °F (1974)
Degree Days  
Heating Degree Days 8 12  
Month to date heating degree days 27 35  
Since 1 July heating degree days 224 243  
Cooling Degree Days 0 1  
Month to date cooling degree days 0 3  
Year to date cooling degree days 886 590  
Growing Degree Days 7 (Base 50)    
Moisture  
Dew Point 33 °F    
Average Humidity 50    
Maximum Humidity 85    
Minimum Humidity 15    
Precipitation  
Precipitation 0.00 in 0.10 in 0.82 in (1990)
Month to date precipitation 0.00 0.32  
Sea Level Pressure  
Sea Level Pressure 29.86 in    
Wind  
Wind Speed 12 mph (South)    
Max Wind Speed 29 mph    
Max Gust Speed 35 mph    
Visibility 9 miles    
Events      
T = Trace of Precipitation, MM = Missing Value Source: NWS Daily Summary

Daily Weather History Graph

Daily Weather History Graph

Search for Another Location

Airport:

Trip Planner

Search our weather history database for the weather conditions in past years. The results will help you decide how hot, cold, wet, or windy it might be!

Date:

Astronomy

Oct. 03, 2012 Rise Set
Actual Time 7:19 AM CDT 6:55 PM CDT
Civil Twilight 6:50 AM CDT 7:24 PM CDT
Nautical Twilight 6:17 AM CDT 7:57 PM CDT
Astronomical Twilight 5:44 AM CDT 8:30 PM CDT
Moon 8:41 PM CDT (10/3) 10:50 AM CDT (10/3)
Length of Visible Light 12h 33m
Length of Day
11h 36m
Waning Gibbous, 88% of the Moon is Illuminated
Oct 3
Waning Gibbous
Oct 8
Last Quarter
Oct 15
New
Oct 21
First Quarter
Oct 29
Full

Hourly Weather History & Observations

Time (CDT) Temp. Windchill Dew Point Humidity Pressure Visibility Wind Dir Wind Speed Gust Speed Precip Events Conditions
12:52 AM 44.1 °F 40.8 °F 28.9 °F 55% 29.89 in 9.0 mi South 5.8 mph - N/A   Clear
1:52 AM 43.0 °F 40.3 °F 30.9 °F 62% 29.90 in 9.0 mi South 4.6 mph - N/A   Clear
2:52 AM 45.0 °F 41.2 °F 34.0 °F 65% 29.89 in 9.0 mi South 6.9 mph - N/A   Clear
3:52 AM 42.1 °F 38.4 °F 33.1 °F 70% 29.89 in 8.0 mi South 5.8 mph - N/A   Clear
4:52 AM 37.9 °F 34.4 °F 30.9 °F 76% 29.89 in 8.0 mi South 4.6 mph - N/A   Clear
5:52 AM 39.0 °F 34.0 °F 33.1 °F 79% 29.90 in 9.0 mi South 6.9 mph - N/A   Clear
6:52 AM 39.9 °F 35.1 °F 35.1 °F 83% 29.92 in 8.0 mi South 6.9 mph - N/A   Clear
7:52 AM 39.9 °F 35.1 °F 35.1 °F 83% 29.92 in 7.0 mi South 6.9 mph - N/A   Clear
8:52 AM 48.0 °F - 36.0 °F 63% 29.92 in 6.0 mi South 4.6 mph - N/A   Haze
9:52 AM 57.9 °F - 37.0 °F 46% 29.91 in 8.0 mi South 6.9 mph - N/A   Clear
10:52 AM 66.0 °F - 36.0 °F 33% 29.90 in 9.0 mi South 10.4 mph - N/A   Clear
11:52 AM 71.1 °F - 32.0 °F 24% 29.89 in 10.0 mi SSE 12.7 mph - N/A   Clear
12:52 PM 73.9 °F - 30.9 °F 21% 29.86 in 10.0 mi South 17.3 mph 25.3 mph N/A   Clear
1:52 PM 75.0 °F - 32.0 °F 21% 29.83 in 10.0 mi South 23.0 mph 28.8 mph N/A   Clear
2:52 PM 77.0 °F - 30.0 °F 18% 29.80 in 10.0 mi South 23.0 mph 32.2 mph N/A   Clear
3:52 PM 77.0 °F - 26.1 °F 15% 29.80 in 10.0 mi South 19.6 mph - N/A   Clear
4:52 PM 77.0 °F - 30.0 °F 18% 29.80 in 10.0 mi South 19.6 mph 27.6 mph N/A   Clear
5:52 PM 73.0 °F - 30.9 °F 21% 29.80 in 10.0 mi South 15.0 mph 26.5 mph N/A   Clear
6:52 PM 70.0 °F - 32.0 °F 25% 29.82 in 8.0 mi South 10.4 mph - N/A   Clear
7:52 PM 64.9 °F - 33.1 °F 31% 29.84 in 10.0 mi SSE 10.4 mph - N/A   Clear
8:52 PM 61.0 °F - 34.0 °F 36% 29.84 in 10.0 mi SSE 11.5 mph - N/A   Clear
10:52 PM 61.0 °F - 34.0 °F 36% 29.83 in 10.0 mi South 15.0 mph - N/A   Clear
11:52 PM 57.0 °F - 35.1 °F 44% 29.82 in 10.0 mi South 11.5 mph - N/A   Clear